Wetterdaten: Samstag, 15.06.2013
Datum Zeit Temperatur Luftfeuchte Luftdruck Regen Wind Richtung Richtung Taupunkt Windchill Windben
15.06.2013 00:00 11,8 C 94 % 1020,2 hPa 0,7 l/m 0,5 km/h (0 Bft) S 180 10,9 C 11,8 C 2,6 km/h (1 Bft)
15.06.2013 00:05 11,8 C 94 % 1020,5 hPa 0,0 l/m 0,5 km/h (0 Bft) NW 315 10,9 C 11,8 C 0,0 km/h (0 Bft)
15.06.2013 00:11 11,7 C 94 % 1020,5 hPa 0,0 l/m 0,5 km/h (0 Bft) S 180 10,8 C 11,7 C 0,0 km/h (0 Bft)
15.06.2013 00:15 11,7 C 95 % 1020,5 hPa 0,0 l/m 0,3 km/h (0 Bft) S 180 10,9 C 11,7 C 0,0 km/h (0 Bft)
15.06.2013 00:20 11,6 C 95 % 1020,5 hPa 0,0 l/m 0,6 km/h (0 Bft) S 180 10,8 C 11,6 C 2,4 km/h (1 Bft)
15.06.2013 00:25 11,5 C 95 % 1020,3 hPa 0,0 l/m 1,1 km/h (1 Bft) S 180 10,7 C 11,6 C 1,9 km/h (1 Bft)
15.06.2013 00:30 11,6 C 95 % 1020,3 hPa 0,0 l/m 0,8 km/h (0 Bft) NO 45 10,8 C 11,6 C 0,0 km/h (0 Bft)
15.06.2013 00:35 11,6 C 95 % 1020,3 hPa 0,0 l/m 0,8 km/h (0 Bft) O-NO 67 10,8 C 11,6 C 1,9 km/h (1 Bft)
15.06.2013 00:40 11,5 C 95 % 1020,3 hPa 0,0 l/m 1,4 km/h (1 Bft) S 180 10,7 C 11,5 C 3,4 km/h (1 Bft)
15.06.2013 00:45 11,4 C 95 % 1020,4 hPa 0,0 l/m 1,0 km/h (0 Bft) S 180 10,6 C 11,4 C 0,0 km/h (0 Bft)
15.06.2013 00:50 11,4 C 95 % 1020,4 hPa 0,0 l/m 0,8 km/h (0 Bft) O-SO 112 10,6 C 11,4 C 1,8 km/h (1 Bft)
15.06.2013 00:55 11,4 C 95 % 1020,4 hPa 0,0 l/m 0,8 km/h (0 Bft) O-SO 112 10,6 C 11,4 C 0,0 km/h (0 Bft)
15.06.2013 01:00 11,3 C 95 % 1020,4 hPa 0,0 l/m 0,2 km/h (0 Bft) O-NO 67 10,5 C 11,3 C 0,0 km/h (0 Bft)
15.06.2013 01:05 11,3 C 95 % 1020,1 hPa 0,0 l/m 0,8 km/h (0 Bft) NO 45 10,5 C 11,2 C 3,1 km/h (1 Bft)
15.06.2013 01:11 11,2 C 95 % 1020,1 hPa 0,0 l/m 1,4 km/h (1 Bft) NO 45 10,4 C 11,2 C 3,5 km/h (1 Bft)
15.06.2013 01:15 11,1 C 95 % 1020,1 hPa 0,0 l/m 1,4 km/h (1 Bft) O 90 10,3 C 11,1 C 0,0 km/h (0 Bft)
15.06.2013 01:20 10,9 C 95 % 1020,1 hPa 0,0 l/m 1,1 km/h (1 Bft) NO 45 10,1 C 10,9 C 0,0 km/h (0 Bft)
15.06.2013 01:25 10,9 C 95 % 1020,0 hPa 0,0 l/m 0,8 km/h (0 Bft) NO 45 10,1 C 10,7 C 2,3 km/h (1 Bft)
15.06.2013 01:30 10,7 C 95 % 1020,0 hPa 0,0 l/m 1,4 km/h (1 Bft) O 90 9,9 C 10,7 C 2,3 km/h (1 Bft)
15.06.2013 01:35 10,6 C 95 % 1020,0 hPa 0,0 l/m 1,3 km/h (1 Bft) O-NO 67 9,8 C 10,6 C 1,8 km/h (1 Bft)
15.06.2013 01:40 10,6 C 95 % 1020,0 hPa 0,0 l/m 1,0 km/h (0 Bft) O-NO 67 9,8 C 10,4 C 2,9 km/h (1 Bft)
15.06.2013 01:45 10,6 C 95 % 1019,8 hPa 0,0 l/m 1,3 km/h (1 Bft) NO 45 9,8 C 10,4 C 2,3 km/h (1 Bft)
15.06.2013 01:50 10,4 C 95 % 1019,8 hPa 0,0 l/m 1,0 km/h (0 Bft) W-NW 292 9,6 C 10,4 C 0,0 km/h (0 Bft)
15.06.2013 01:55 10,2 C 95 % 1019,8 hPa 0,0 l/m 0,5 km/h (0 Bft) NO 45 9,4 C 10,2 C 0,0 km/h (0 Bft)
15.06.2013 02:00 10,2 C 95 % 1019,8 hPa 0,0 l/m 0,3 km/h (0 Bft) N-NW 337 9,4 C 10,1 C 0,0 km/h (0 Bft)
15.06.2013 02:05 10,1 C 95 % 1020,0 hPa 0,0 l/m 0,6 km/h (0 Bft) O 90 9,3 C 10,0 C 1,8 km/h (1 Bft)
15.06.2013 02:11 10,1 C 95 % 1020,0 hPa 0,0 l/m 0,3 km/h (0 Bft) O 90 9,3 C 10,0 C 0,0 km/h (0 Bft)
15.06.2013 02:15 10,2 C 95 % 1020,0 hPa 0,0 l/m 0,6 km/h (0 Bft) O 90 9,4 C 9,9 C 2,4 km/h (1 Bft)
15.06.2013 02:20 10,1 C 95 % 1020,0 hPa 0,0 l/m 1,4 km/h (1 Bft) O 90 9,3 C 10,0 C 4,2 km/h (1 Bft)
15.06.2013 02:25 10,3 C 95 % 1019,8 hPa 0,0 l/m 2,3 km/h (1 Bft) O 90 9,5 C 10,0 C 2,7 km/h (1 Bft)
15.06.2013 02:30 10,0 C 95 % 1019,8 hPa 0,0 l/m 1,9 km/h (1 Bft) N 360 9,2 C 9,9 C 3,4 km/h (1 Bft)
15.06.2013 02:35 9,7 C 95 % 1019,8 hPa 0,0 l/m 1,1 km/h (1 Bft) S 180 8,9 C 9,8 C 0,0 km/h (0 Bft)
15.06.2013 02:40 9,6 C 95 % 1019,8 hPa 0,0 l/m 0,6 km/h (0 Bft) S 180 8,8 C 9,6 C 0,0 km/h (0 Bft)
15.06.2013 02:45 9,6 C 95 % 1020,0 hPa 0,0 l/m 0,2 km/h (0 Bft) NO 45 8,8 C 9,4 C 1,6 km/h (1 Bft)
15.06.2013 02:50 9,6 C 95 % 1020,0 hPa 0,0 l/m 0,2 km/h (0 Bft) O 90 8,8 C 9,4 C 0,0 km/h (0 Bft)
15.06.2013 02:55 9,6 C 95 % 1020,0 hPa 0,0 l/m 0,3 km/h (0 Bft) N-NO 22 8,8 C 9,3 C 0,0 km/h (0 Bft)
15.06.2013 03:00 9,5 C 95 % 1020,0 hPa 0,0 l/m 0,5 km/h (0 Bft) O-SO 112 8,7 C 9,1 C 2,9 km/h (1 Bft)
15.06.2013 03:05 9,5 C 95 % 1019,8 hPa 0,0 l/m 0,6 km/h (0 Bft) S 180 8,7 C 9,1 C 0,0 km/h (0 Bft)
15.06.2013 03:10 9,1 C 95 % 1019,8 hPa 0,0 l/m 0,3 km/h (0 Bft) S 180 8,3 C 9,1 C 0,0 km/h (0 Bft)
15.06.2013 03:15 9,0 C 95 % 1019,8 hPa 0,0 l/m 0,0 km/h (0 Bft) S-SW 202 8,2 C 8,9 C 0,0 km/h (0 Bft)
15.06.2013 03:20 8,7 C 95 % 1019,8 hPa 0,0 l/m 0,0 km/h (0 Bft) S-SW 202 7,9 C 8,6 C 0,0 km/h (0 Bft)
15.06.2013 03:25 8,4 C 95 % 1019,6 hPa 0,0 l/m 0,0 km/h (0 Bft) S-SW 202 7,6 C 8,4 C 0,0 km/h (0 Bft)
15.06.2013 03:30 8,3 C 95 % 1019,6 hPa 0,0 l/m 0,0 km/h (0 Bft) W-NW 292 7,5 C 8,2 C 0,0 km/h (0 Bft)
15.06.2013 03:35 8,1 C 95 % 1019,6 hPa 0,0 l/m 0,0 km/h (0 Bft) W-NW 292 7,3 C 8,2 C 0,0 km/h (0 Bft)
15.06.2013 03:40 8,3 C 95 % 1019,6 hPa 0,0 l/m 0,0 km/h (0 Bft) NW 315 7,5 C 8,0 C 0,0 km/h (0 Bft)
15.06.2013 03:45 8,5 C 95 % 1019,5 hPa 0,0 l/m 0,3 km/h (0 Bft) NW 315 7,7 C 8,1 C 0,0 km/h (0 Bft)
15.06.2013 03:50 8,3 C 95 % 1019,5 hPa 0,0 l/m 0,3 km/h (0 Bft) NW 315 7,5 C 8,2 C 0,0 km/h (0 Bft)
15.06.2013 03:55 8,5 C 95 % 1019,5 hPa 0,0 l/m 0,0 km/h (0 Bft) NW 315 7,7 C 8,2 C 0,0 km/h (0 Bft)
15.06.2013 04:00 8,5 C 95 % 1019,5 hPa 0,0 l/m 0,0 km/h (0 Bft) NW 315 7,7 C 8,4 C 0,0 km/h (0 Bft)
15.06.2013 04:05 8,4 C 95 % 1019,5 hPa 0,0 l/m 0,0 km/h (0 Bft) W-NW 292 7,6 C 8,5 C 0,0 km/h (0 Bft)
15.06.2013 04:10 8,6 C 95 % 1019,5 hPa 0,0 l/m 0,0 km/h (0 Bft) NW 315 7,8 C 8,5 C 0,0 km/h (0 Bft)
15.06.2013 04:15 8,5 C 95 % 1019,5 hPa 0,0 l/m 0,0 km/h (0 Bft) NW 315 7,7 C 8,5 C 0,0 km/h (0 Bft)
15.06.2013 04:20 8,5 C 95 % 1019,5 hPa 0,0 l/m 0,2 km/h (0 Bft) N 360 7,7 C 8,5 C 2,3 km/h (1 Bft)
15.06.2013 04:25 8,7 C 95 % 1019,3 hPa 0,0 l/m 0,6 km/h (0 Bft) O-SO 112 7,9 C 8,5 C 0,0 km/h (0 Bft)
15.06.2013 04:30 8,5 C 95 % 1019,3 hPa 0,0 l/m 0,5 km/h (0 Bft) S-SO 157 7,7 C 8,5 C 0,0 km/h (0 Bft)
15.06.2013 04:35 8,5 C 95 % 1019,3 hPa 0,0 l/m 0,3 km/h (0 Bft) O 90 7,7 C 8,5 C 2,1 km/h (1 Bft)
15.06.2013 04:40 8,7 C 96 % 1019,3 hPa 0,0 l/m 0,5 km/h (0 Bft) N-NW 337 8,1 C 8,5 C 0,0 km/h (0 Bft)
15.06.2013 04:45 8,4 C 95 % 1019,2 hPa 0,0 l/m 0,5 km/h (0 Bft) N-NW 337 7,6 C 8,4 C 0,0 km/h (0 Bft)
15.06.2013 04:50 8,2 C 95 % 1019,2 hPa 0,0 l/m 0,2 km/h (0 Bft) N-NO 22 7,4 C 8,2 C 0,0 km/h (0 Bft)
15.06.2013 04:55 8,2 C 95 % 1019,2 hPa 0,0 l/m 0,2 km/h (0 Bft) N-NO 22 7,4 C 8,2 C 0,0 km/h (0 Bft)
15.06.2013 05:00 8,5 C 95 % 1019,2 hPa 0,0 l/m 0,5 km/h (0 Bft) NO 45 7,7 C 8,3 C 0,0 km/h (0 Bft)
15.06.2013 05:05 8,4 C 95 % 1019,3 hPa 0,0 l/m 0,5 km/h (0 Bft) NO 45 7,6 C 8,4 C 0,0 km/h (0 Bft)
15.06.2013 05:11 8,5 C 96 % 1019,3 hPa 0,0 l/m 0,0 km/h (0 Bft) NO 45 7,9 C 8,3 C 0,0 km/h (0 Bft)
15.06.2013 05:15 8,6 C 96 % 1019,3 hPa 0,0 l/m 0,0 km/h (0 Bft) NO 45 8,0 C 8,4 C 0,0 km/h (0 Bft)
15.06.2013 05:20 8,5 C 96 % 1019,3 hPa 0,0 l/m 0,0 km/h (0 Bft) NO 45 7,9 C 8,3 C 0,0 km/h (0 Bft)
15.06.2013 05:25 8,4 C 96 % 1019,1 hPa 0,0 l/m 0,0 km/h (0 Bft) N 360 7,8 C 8,2 C 0,0 km/h (0 Bft)
15.06.2013 05:30 8,4 C 96 % 1019,1 hPa 0,0 l/m 0,0 km/h (0 Bft) N-NO 22 7,8 C 8,2 C 0,0 km/h (0 Bft)
15.06.2013 05:35 8,5 C 96 % 1019,1 hPa 0,0 l/m 0,0 km/h (0 Bft) N-NO 22 7,9 C 8,2 C 0,0 km/h (0 Bft)
15.06.2013 05:40 8,8 C 96 % 1019,1 hPa 0,0 l/m 0,0 km/h (0 Bft) NO 45 8,2 C 8,5 C 0,0 km/h (0 Bft)
15.06.2013 05:45 8,9 C 96 % 1019,1 hPa 0,0 l/m 0,0 km/h (0 Bft) NO 45 8,3 C 8,8 C 0,0 km/h (0 Bft)
15.06.2013 05:50 9,0 C 95 % 1019,1 hPa 0,0 l/m 0,0 km/h (0 Bft) O-SO 112 8,2 C 9,0 C 0,0 km/h (0 Bft)
15.06.2013 05:55 9,2 C 95 % 1019,1 hPa 0,0 l/m 0,0 km/h (0 Bft) NO 45 8,4 C 9,1 C 0,0 km/h (0 Bft)
15.06.2013 06:00 9,6 C 96 % 1019,1 hPa 0,0 l/m 0,0 km/h (0 Bft) NO 45 9,0 C 10,0 C 0,0 km/h (0 Bft)
15.06.2013 06:05 10,6 C 96 % 1019,1 hPa 0,0 l/m 0,0 km/h (0 Bft) NO 45 10,0 C 10,9 C 0,0 km/h (0 Bft)
15.06.2013 06:10 11,8 C 95 % 1019,1 hPa 0,0 l/m 0,3 km/h (0 Bft) S-SO 157 11,0 C 12,0 C 0,0 km/h (0 Bft)
15.06.2013 06:15 12,0 C 95 % 1019,1 hPa 0,0 l/m 0,8 km/h (0 Bft) SW 225 11,2 C 12,8 C 0,0 km/h (0 Bft)
15.06.2013 06:20 13,4 C 94 % 1019,1 hPa 0,0 l/m 0,6 km/h (0 Bft) S-SO 157 12,5 C 13,7 C 6,0 km/h (2 Bft)
15.06.2013 06:25 14,2 C 94 % 1019,0 hPa 0,0 l/m 1,0 km/h (0 Bft) SO 135 13,2 C 14,5 C 0,0 km/h (0 Bft)
15.06.2013 06:30 15,1 C 93 % 1019,0 hPa 0,0 l/m 0,6 km/h (0 Bft) O-SO 112 14,0 C 15,9 C 0,0 km/h (0 Bft)
15.06.2013 06:35 15,6 C 92 % 1019,0 hPa 0,0 l/m 0,3 km/h (0 Bft) W-SW 247 14,3 C 16,8 C 2,1 km/h (1 Bft)
15.06.2013 06:40 16,0 C 90 % 1019,0 hPa 0,0 l/m 0,3 km/h (0 Bft) NO 45 14,4 C 17,7 C 0,0 km/h (0 Bft)
15.06.2013 06:45 14,3 C 91 % 1019,1 hPa 0,0 l/m 0,3 km/h (0 Bft) NO 45 12,8 C 17,7 C 0,0 km/h (0 Bft)
15.06.2013 06:50 16,4 C 90 % 1019,1 hPa 0,0 l/m 0,0 km/h (0 Bft) N-NO 22 14,8 C 17,9 C 0,0 km/h (0 Bft)
15.06.2013 06:55 16,8 C 89 % 1019,1 hPa 0,0 l/m 0,0 km/h (0 Bft) O-NO 67 15,0 C 18,4 C 0,0 km/h (0 Bft)
15.06.2013 07:00 17,6 C 87 % 1019,1 hPa 0,0 l/m 0,2 km/h (0 Bft) NO 45 15,4 C 19,2 C 0,0 km/h (0 Bft)
15.06.2013 07:05 17,1 C 86 % 1019,1 hPa 0,0 l/m 0,5 km/h (0 Bft) NO 45 14,7 C 19,4 C 2,1 km/h (1 Bft)
15.06.2013 07:11 18,6 C 85 % 1019,1 hPa 0,0 l/m 0,5 km/h (0 Bft) NO 45 16,0 C 19,7 C 0,0 km/h (0 Bft)
15.06.2013 07:15 18,9 C 84 % 1019,1 hPa 0,0 l/m 0,5 km/h (0 Bft) S-SO 157 16,1 C 20,4 C 2,6 km/h (1 Bft)
15.06.2013 07:20 17,3 C 85 % 1019,1 hPa 0,0 l/m 0,5 km/h (0 Bft) N-NO 22 14,8 C 19,4 C 0,0 km/h (0 Bft)
15.06.2013 07:25 19,2 C 82 % 1019,2 hPa 0,0 l/m 0,6 km/h (0 Bft) W-NW 292 16,0 C 20,2 C 0,0 km/h (0 Bft)
15.06.2013 07:30 20,2 C 82 % 1019,2 hPa 0,0 l/m 0,3 km/h (0 Bft) S-SW 202 17,0 C 21,1 C 3,1 km/h (1 Bft)
15.06.2013 07:35 17,9 C 81 % 1019,2 hPa 0,0 l/m 0,5 km/h (0 Bft) O-NO 67 14,6 C 21,6 C 0,0 km/h (0 Bft)
15.06.2013 07:40 16,6 C 85 % 1019,2 hPa 0,0 l/m 0,8 km/h (0 Bft) NO 45 14,1 C 20,0 C 0,0 km/h (0 Bft)
15.06.2013 07:45 18,8 C 84 % 1019,4 hPa 0,0 l/m 0,5 km/h (0 Bft) SO 135 16,0 C 19,2 C 0,0 km/h (0 Bft)
15.06.2013 07:50 20,4 C 79 % 1019,4 hPa 0,0 l/m 0,5 km/h (0 Bft) O-NO 67 16,6 C 20,8 C 2,1 km/h (1 Bft)
15.06.2013 07:55 21,1 C 76 % 1019,4 hPa 0,0 l/m 0,5 km/h (0 Bft) W-SW 247 16,7 C 22,1 C 0,0 km/h (0 Bft)
15.06.2013 08:00 21,6 C 76 % 1019,4 hPa 0,0 l/m 0,3 km/h (0 Bft) S 180 17,2 C 23,7 C 0,0 km/h (0 Bft)
15.06.2013 08:05 19,6 C 79 % 1019,7 hPa 0,0 l/m 0,3 km/h (0 Bft) S-SW 202 15,9 C 23,8 C 3,1 km/h (1 Bft)
15.06.2013 08:11 19,3 C 80 % 1019,7 hPa 0,0 l/m 0,6 km/h (0 Bft) W-NW 292 15,8 C 22,9 C 0,0 km/h (0 Bft)
15.06.2013 08:15 20,0 C 75 % 1019,7 hPa 0,0 l/m 1,1 km/h (1 Bft) NO 45 15,4 C 22,7 C 3,2 km/h (1 Bft)
15.06.2013 08:20 22,1 C 76 % 1019,7 hPa 0,0 l/m 1,0 km/h (0 Bft) N-NW 337 17,7 C 22,8 C 0,0 km/h (0 Bft)
15.06.2013 08:25 22,9 C 75 % 1019,3 hPa 0,0 l/m 0,6 km/h (0 Bft) W-SW 247 18,2 C 23,7 C 0,0 km/h (0 Bft)
15.06.2013 08:30 21,8 C 75 % 1019,3 hPa 0,0 l/m 0,2 km/h (0 Bft) N-NO 22 17,2 C 24,4 C 1,8 km/h (1 Bft)
15.06.2013 08:35 20,4 C 77 % 1019,3 hPa 0,0 l/m 0,3 km/h (0 Bft) NO 45 16,2 C 24,1 C 1,6 km/h (1 Bft)
15.06.2013 08:40 22,8 C 76 % 1019,3 hPa 0,0 l/m 0,5 km/h (0 Bft) N-NO 22 18,3 C 24,5 C 0,0 km/h (0 Bft)
15.06.2013 08:45 21,6 C 78 % 1019,9 hPa 0,0 l/m 0,3 km/h (0 Bft) O 90 17,6 C 25,2 C 0,0 km/h (0 Bft)
15.06.2013 08:50 21,6 C 80 % 1019,9 hPa 0,0 l/m 0,0 km/h (0 Bft) NO 45 18,0 C 25,0 C 0,0 km/h (0 Bft)
15.06.2013 08:55 20,7 C 82 % 1019,9 hPa 0,0 l/m 0,3 km/h (0 Bft) SO 135 17,5 C 24,6 C 2,3 km/h (1 Bft)
15.06.2013 09:00 19,7 C 82 % 1019,9 hPa 0,0 l/m 0,5 km/h (0 Bft) O-NO 67 16,5 C 23,3 C 0,0 km/h (0 Bft)
15.06.2013 09:05 20,1 C 82 % 1020,1 hPa 0,0 l/m 1,0 km/h (0 Bft) S-SO 157 16,9 C 22,9 C 2,9 km/h (1 Bft)
15.06.2013 09:10 19,3 C 80 % 1020,1 hPa 0,0 l/m 1,0 km/h (0 Bft) NO 45 15,8 C 22,3 C 0,0 km/h (0 Bft)
15.06.2013 09:15 19,6 C 83 % 1020,1 hPa 0,0 l/m 0,6 km/h (0 Bft) O-SO 112 16,6 C 22,0 C 0,0 km/h (0 Bft)
15.06.2013 09:20 22,3 C 79 % 1020,1 hPa 0,0 l/m 0,2 km/h (0 Bft) O-NO 67 18,5 C 22,9 C 1,6 km/h (1 Bft)
15.06.2013 09:25 22,1 C 74 % 1020,4 hPa 0,0 l/m 0,3 km/h (0 Bft) N-NW 337 17,2 C 24,0 C 0,0 km/h (0 Bft)
15.06.2013 09:30 21,5 C 75 % 1020,4 hPa 0,0 l/m 1,1 km/h (1 Bft) S-SO 157 16,9 C 24,4 C 6,4 km/h (2 Bft)
15.06.2013 09:35 21,2 C 75 % 1020,4 hPa 0,0 l/m 1,6 km/h (1 Bft) S 180 16,6 C 23,9 C 2,7 km/h (1 Bft)
15.06.2013 09:40 21,2 C 75 % 1020,4 hPa 0,0 l/m 2,1 km/h (1 Bft) S-SO 157 16,6 C 23,8 C 5,5 km/h (1 Bft)
15.06.2013 09:45 21,4 C 73 % 1020,4 hPa 0,0 l/m 2,1 km/h (1 Bft) S-SW 202 16,4 C 23,5 C 3,4 km/h (1 Bft)
15.06.2013 09:50 22,0 C 71 % 1020,4 hPa 0,0 l/m 2,4 km/h (1 Bft) S 180 16,5 C 23,4 C 0,0 km/h (0 Bft)
15.06.2013 09:55 21,2 C 70 % 1020,4 hPa 0,0 l/m 2,4 km/h (1 Bft) O-SO 112 15,5 C 23,1 C 4,0 km/h (1 Bft)
15.06.2013 10:00 20,7 C 69 % 1020,4 hPa 0,0 l/m 3,1 km/h (1 Bft) S-SO 157 14,8 C 22,4 C 8,9 km/h (2 Bft)
15.06.2013 10:05 20,2 C 66 % 1020,5 hPa 0,0 l/m 4,0 km/h (1 Bft) S-SO 157 13,6 C 21,9 C 7,4 km/h (2 Bft)
15.06.2013 10:10 20,9 C 67 % 1020,5 hPa 0,0 l/m 3,9 km/h (1 Bft) S 180 14,5 C 21,9 C 4,2 km/h (1 Bft)
15.06.2013 10:15 21,2 C 61 % 1020,5 hPa 0,0 l/m 3,5 km/h (1 Bft) S 180 13,4 C 22,3 C 6,3 km/h (2 Bft)
15.06.2013 10:20 20,5 C 60 % 1020,5 hPa 0,0 l/m 5,1 km/h (1 Bft) SO 135 12,5 C 22,1 C 12,2 km/h (2 Bft)
15.06.2013 10:25 20,9 C 59 % 1020,5 hPa 0,0 l/m 5,1 km/h (1 Bft) S-SW 202 12,6 C 22,0 C 5,3 km/h (1 Bft)
15.06.2013 10:30 20,0 C 58 % 1020,5 hPa 0,0 l/m 5,0 km/h (1 Bft) S 180 11,5 C 21,5 C 6,1 km/h (2 Bft)
15.06.2013 10:35 19,6 C 59 % 1020,5 hPa 0,0 l/m 6,4 km/h (2 Bft) S 180 11,4 C 20,9 C 8,7 km/h (2 Bft)
15.06.2013 10:40 19,8 C 62 % 1020,5 hPa 0,0 l/m 6,3 km/h (2 Bft) S 180 12,3 C 20,6 C 14,6 km/h (3 Bft)
15.06.2013 10:45 19,8 C 60 % 1020,7 hPa 0,0 l/m 5,6 km/h (1 Bft) S 180 11,8 C 20,7 C 10,6 km/h (2 Bft)
15.06.2013 10:50 19,6 C 64 % 1020,7 hPa 0,0 l/m 4,8 km/h (1 Bft) S 180 12,6 C 20,5 C 5,0 km/h (1 Bft)
15.06.2013 10:55 19,3 C 65 % 1020,7 hPa 0,0 l/m 3,9 km/h (1 Bft) S-SW 202 12,6 C 20,3 C 2,1 km/h (1 Bft)
15.06.2013 11:00 19,1 C 63 % 1020,7 hPa 0,0 l/m 2,6 km/h (1 Bft) S 180 11,9 C 20,1 C 5,3 km/h (1 Bft)
15.06.2013 11:05 18,9 C 65 % 1020,6 hPa 0,0 l/m 3,1 km/h (1 Bft) S 180 12,2 C 19,9 C 4,2 km/h (1 Bft)
15.06.2013 11:10 18,9 C 66 % 1020,6 hPa 0,0 l/m 4,2 km/h (1 Bft) W-SW 247 12,4 C 19,7 C 3,2 km/h (1 Bft)
15.06.2013 11:16 19,2 C 67 % 1020,6 hPa 0,0 l/m 3,5 km/h (1 Bft) S-SW 202 12,9 C 19,7 C 3,7 km/h (1 Bft)
15.06.2013 11:20 20,0 C 65 % 1020,6 hPa 0,0 l/m 2,7 km/h (1 Bft) S-SO 157 13,2 C 20,3 C 2,3 km/h (1 Bft)
15.06.2013 11:25 20,2 C 59 % 1020,9 hPa 0,0 l/m 3,5 km/h (1 Bft) S-SW 202 11,9 C 20,9 C 6,4 km/h (2 Bft)
15.06.2013 11:30 20,6 C 62 % 1020,9 hPa 0,0 l/m 4,7 km/h (1 Bft) S 180 13,1 C 21,2 C 4,0 km/h (1 Bft)
15.06.2013 11:35 21,4 C 59 % 1020,9 hPa 0,0 l/m 4,8 km/h (1 Bft) W-SW 247 13,0 C 21,8 C 6,8 km/h (2 Bft)
15.06.2013 11:40 23,7 C 53 % 1020,9 hPa 0,0 l/m 4,2 km/h (1 Bft) S 180 13,5 C 23,2 C 6,0 km/h (2 Bft)
15.06.2013 11:45 22,8 C 54 % 1020,9 hPa 0,0 l/m 4,2 km/h (1 Bft) S 180 13,0 C 24,1 C 6,0 km/h (2 Bft)
15.06.2013 11:50 23,7 C 50 % 1020,9 hPa 0,0 l/m 3,9 km/h (1 Bft) S 180 12,6 C 23,9 C 5,6 km/h (1 Bft)
15.06.2013 11:55 24,2 C 46 % 1020,9 hPa 0,0 l/m 4,7 km/h (1 Bft) S 180 11,8 C 24,3 C 5,5 km/h (1 Bft)
15.06.2013 12:00 24,7 C 46 % 1020,9 hPa 0,0 l/m 5,1 km/h (1 Bft) S 180 12,3 C 24,8 C 5,8 km/h (2 Bft)
15.06.2013 12:05 25,1 C 47 % 1020,7 hPa 0,0 l/m 4,8 km/h (1 Bft) S 180 13,0 C 25,1 C 5,5 km/h (1 Bft)
15.06.2013 12:10 24,8 C 45 % 1020,7 hPa 0,0 l/m 6,0 km/h (2 Bft) S 180 12,0 C 25,2 C 10,1 km/h (2 Bft)
15.06.2013 12:15 24,9 C 46 % 1020,7 hPa 0,0 l/m 6,9 km/h (2 Bft) W-SW 247 12,5 C 25,1 C 10,1 km/h (2 Bft)
15.06.2013 12:20 24,8 C 46 % 1020,7 hPa 0,0 l/m 8,0 km/h (2 Bft) SO 135 12,4 C 24,8 C 16,3 km/h (3 Bft)
15.06.2013 12:25 24,9 C 47 % 1020,2 hPa 0,0 l/m 8,4 km/h (2 Bft) S 180 12,8 C 24,5 C 8,4 km/h (2 Bft)
15.06.2013 12:30 25,2 C 47 % 1020,2 hPa 0,0 l/m 8,2 km/h (2 Bft) S 180 13,1 C 24,7 C 9,3 km/h (2 Bft)
15.06.2013 12:35 24,9 C 48 % 1020,2 hPa 0,0 l/m 7,7 km/h (2 Bft) S 180 13,1 C 24,8 C 10,6 km/h (2 Bft)
15.06.2013 12:40 25,2 C 49 % 1020,2 hPa 0,0 l/m 7,6 km/h (2 Bft) S 180 13,7 C 24,9 C 7,9 km/h (2 Bft)
15.06.2013 12:45 24,6 C 49 % 1020,8 hPa 0,0 l/m 8,2 km/h (2 Bft) S 180 13,2 C 24,8 C 8,0 km/h (2 Bft)
15.06.2013 12:50 25,4 C 49 % 1020,8 hPa 0,0 l/m 7,9 km/h (2 Bft) S 180 13,9 C 25,1 C 19,6 km/h (3 Bft)
15.06.2013 12:55 25,2 C 49 % 1020,8 hPa 0,0 l/m 7,7 km/h (2 Bft) NO 45 13,7 C 25,2 C 6,1 km/h (2 Bft)
15.06.2013 13:00 24,9 C 49 % 1020,8 hPa 0,0 l/m 6,9 km/h (2 Bft) O-SO 112 13,4 C 25,8 C 6,1 km/h (2 Bft)
15.06.2013 13:05 23,4 C 50 % 1020,9 hPa 0,0 l/m 6,1 km/h (2 Bft) S-SW 202 12,4 C 25,1 C 4,0 km/h (1 Bft)
15.06.2013 13:10 24,3 C 51 % 1020,9 hPa 0,0 l/m 6,6 km/h (2 Bft) S 180 13,5 C 24,5 C 12,9 km/h (3 Bft)
15.06.2013 13:15 24,4 C 50 % 1020,9 hPa 0,0 l/m 6,8 km/h (2 Bft) S 180 13,3 C 24,5 C 8,9 km/h (2 Bft)
15.06.2013 13:20 23,4 C 54 % 1020,9 hPa 0,0 l/m 7,4 km/h (2 Bft) S 180 13,6 C 23,9 C 3,4 km/h (1 Bft)
15.06.2013 13:25 23,2 C 56 % 1020,8 hPa 0,0 l/m 6,1 km/h (2 Bft) SO 135 13,9 C 24,0 C 7,6 km/h (2 Bft)
15.06.2013 13:30 24,5 C 52 % 1020,8 hPa 0,0 l/m 4,5 km/h (1 Bft) S 180 14,0 C 24,2 C 3,1 km/h (1 Bft)
15.06.2013 13:35 25,5 C 48 % 1020,8 hPa 0,0 l/m 4,7 km/h (1 Bft) W-NW 292 13,7 C 25,4 C 8,5 km/h (2 Bft)
15.06.2013 13:40 25,8 C 50 % 1020,8 hPa 0,0 l/m 4,7 km/h (1 Bft) N-NO 22 14,6 C 26,5 C 7,9 km/h (2 Bft)
15.06.2013 13:45 26,2 C 47 % 1020,7 hPa 0,0 l/m 6,6 km/h (2 Bft) S-SW 202 14,0 C 26,9 C 9,0 km/h (2 Bft)
15.06.2013 13:50 26,2 C 48 % 1020,7 hPa 0,0 l/m 7,2 km/h (2 Bft) S-SW 202 14,3 C 26,7 C 10,1 km/h (2 Bft)
15.06.2013 13:55 26,1 C 47 % 1020,7 hPa 0,0 l/m 7,4 km/h (2 Bft) W-SW 247 13,9 C 26,7 C 9,7 km/h (2 Bft)
15.06.2013 14:00 26,0 C 46 % 1020,7 hPa 0,0 l/m 6,4 km/h (2 Bft) W-SW 247 13,5 C 26,9 C 5,8 km/h (2 Bft)
15.06.2013 14:05 26,5 C 47 % 1020,8 hPa 0,0 l/m 6,0 km/h (2 Bft) S 180 14,3 C 27,3 C 8,2 km/h (2 Bft)
15.06.2013 14:10 26,2 C 45 % 1020,8 hPa 0,0 l/m 5,6 km/h (1 Bft) SW 225 13,3 C 27,4 C 5,1 km/h (1 Bft)
15.06.2013 14:15 26,4 C 47 % 1020,8 hPa 0,0 l/m 6,0 km/h (2 Bft) S 180 14,2 C 27,5 C 7,9 km/h (2 Bft)
15.06.2013 14:20 27,6 C 45 % 1020,8 hPa 0,0 l/m 4,2 km/h (1 Bft) S-SW 202 14,6 C 28,2 C 7,6 km/h (2 Bft)
15.06.2013 14:25 26,7 C 45 % 1020,6 hPa 0,0 l/m 4,5 km/h (1 Bft) W-SW 247 13,8 C 28,3 C 12,4 km/h (3 Bft)
15.06.2013 14:30 26,8 C 46 % 1020,6 hPa 0,0 l/m 6,1 km/h (2 Bft) S-SW 202 14,2 C 28,1 C 10,5 km/h (2 Bft)
15.06.2013 14:35 26,9 C 45 % 1020,6 hPa 0,0 l/m 6,1 km/h (2 Bft) S 180 13,9 C 28,0 C 9,5 km/h (2 Bft)
15.06.2013 14:40 26,4 C 44 % 1020,6 hPa 0,0 l/m 6,6 km/h (2 Bft) SW 225 13,1 C 27,5 C 5,0 km/h (1 Bft)
15.06.2013 14:45 26,4 C 45 % 1020,6 hPa 0,0 l/m 6,3 km/h (2 Bft) S-SW 202 13,5 C 27,5 C 9,5 km/h (2 Bft)
15.06.2013 14:50 26,8 C 48 % 1020,6 hPa 0,0 l/m 6,4 km/h (2 Bft) W-SW 247 14,9 C 27,4 C 6,9 km/h (2 Bft)
15.06.2013 14:55 27,0 C 45 % 1020,6 hPa 0,0 l/m 6,6 km/h (2 Bft) S-SW 202 14,0 C 27,4 C 9,7 km/h (2 Bft)
15.06.2013 15:00 26,9 C 44 % 1020,6 hPa 0,0 l/m 6,0 km/h (2 Bft) W 270 13,6 C 27,6 C 7,9 km/h (2 Bft)
15.06.2013 15:05 26,4 C 45 % 1019,8 hPa 0,0 l/m 6,4 km/h (2 Bft) S-SW 202 13,5 C 27,5 C 6,1 km/h (2 Bft)
15.06.2013 15:10 27,1 C 44 % 1019,8 hPa 0,0 l/m 5,8 km/h (2 Bft) W-SW 247 13,8 C 27,7 C 2,6 km/h (1 Bft)
15.06.2013 15:15 27,6 C 45 % 1019,8 hPa 0,0 l/m 4,0 km/h (1 Bft) S-SW 202 14,6 C 28,2 C 6,0 km/h (2 Bft)
15.06.2013 15:20 26,4 C 44 % 1019,8 hPa 0,0 l/m 4,8 km/h (1 Bft) S 180 13,1 C 28,4 C 7,1 km/h (2 Bft)
15.06.2013 15:25 26,9 C 45 % 1020,2 hPa 0,0 l/m 5,5 km/h (1 Bft) SW 225 13,9 C 28,2 C 3,5 km/h (1 Bft)
15.06.2013 15:30 27,5 C 45 % 1020,2 hPa 0,0 l/m 4,0 km/h (1 Bft) NW 315 14,5 C 29,0 C 9,0 km/h (2 Bft)
15.06.2013 15:35 27,2 C 44 % 1020,2 hPa 0,0 l/m 4,7 km/h (1 Bft) W-SW 247 13,9 C 28,8 C 6,9 km/h (2 Bft)
15.06.2013 15:40 27,1 C 45 % 1020,2 hPa 0,0 l/m 5,1 km/h (1 Bft) W-NW 292 14,1 C 28,8 C 2,9 km/h (1 Bft)
15.06.2013 15:45 26,7 C 44 % 1020,1 hPa 0,0 l/m 4,0 km/h (1 Bft) W-SW 247 13,4 C 29,1 C 6,8 km/h (2 Bft)
15.06.2013 15:50 27,2 C 46 % 1020,1 hPa 0,0 l/m 2,7 km/h (1 Bft) W 270 14,6 C 29,6 C 0,0 km/h (0 Bft)
15.06.2013 15:55 26,9 C 45 % 1020,1 hPa 0,0 l/m 2,7 km/h (1 Bft) W-NW 292 13,9 C 30,2 C 4,5 km/h (1 Bft)
15.06.2013 16:00 26,9 C 44 % 1020,1 hPa 0,0 l/m 4,0 km/h (1 Bft) W-SW 247 13,6 C 30,0 C 8,5 km/h (2 Bft)
15.06.2013 16:05 26,8 C 45 % 1020,2 hPa 0,0 l/m 4,8 km/h (1 Bft) W 270 13,9 C 29,7 C 8,0 km/h (2 Bft)
15.06.2013 16:10 27,2 C 45 % 1020,2 hPa 0,0 l/m 4,7 km/h (1 Bft) SW 225 14,2 C 29,9 C 6,4 km/h (2 Bft)
15.06.2013 16:15 27,1 C 45 % 1020,2 hPa 0,0 l/m 4,0 km/h (1 Bft) S-SW 202 14,1 C 30,0 C 10,1 km/h (2 Bft)
15.06.2013 16:20 27,2 C 44 % 1020,2 hPa 0,0 l/m 4,5 km/h (1 Bft) S 180 13,9 C 30,2 C 5,0 km/h (1 Bft)
15.06.2013 16:25 26,8 C 44 % 1020,1 hPa 0,0 l/m 4,0 km/h (1 Bft) W-SW 247 13,5 C 30,1 C 8,2 km/h (2 Bft)
15.06.2013 16:30 26,8 C 45 % 1020,1 hPa 0,0 l/m 3,5 km/h (1 Bft) S 180 13,9 C 30,1 C 4,8 km/h (1 Bft)
15.06.2013 16:35 26,8 C 43 % 1020,1 hPa 0,0 l/m 4,7 km/h (1 Bft) W-SW 247 13,2 C 30,0 C 3,9 km/h (1 Bft)
15.06.2013 16:40 26,6 C 46 % 1020,1 hPa 0,0 l/m 5,5 km/h (1 Bft) W-SW 247 14,0 C 29,8 C 5,0 km/h (1 Bft)
15.06.2013 16:45 26,4 C 45 % 1019,8 hPa 0,0 l/m 4,0 km/h (1 Bft) W-SW 247 13,5 C 30,2 C 4,0 km/h (1 Bft)
15.06.2013 16:50 26,4 C 46 % 1019,8 hPa 0,0 l/m 3,5 km/h (1 Bft) W 270 13,8 C 30,6 C 5,5 km/h (1 Bft)
15.06.2013 16:55 25,6 C 48 % 1019,8 hPa 0,0 l/m 3,5 km/h (1 Bft) NW 315 13,8 C 30,3 C 6,4 km/h (2 Bft)
15.06.2013 17:00 25,2 C 49 % 1019,8 hPa 0,0 l/m 3,9 km/h (1 Bft) W-SW 247 13,7 C 28,9 C 3,4 km/h (1 Bft)
15.06.2013 17:05 25,8 C 49 % 1019,8 hPa 0,0 l/m 3,5 km/h (1 Bft) W-SW 247 14,3 C 29,6 C 4,8 km/h (1 Bft)
15.06.2013 17:11 25,5 C 49 % 1019,8 hPa 0,0 l/m 2,6 km/h (1 Bft) S 180 14,0 C 30,6 C 0,0 km/h (0 Bft)
15.06.2013 17:15 25,4 C 48 % 1019,8 hPa 0,0 l/m 2,7 km/h (1 Bft) S 180 13,6 C 30,9 C 0,0 km/h (0 Bft)
15.06.2013 17:20 25,3 C 49 % 1019,8 hPa 0,0 l/m 2,7 km/h (1 Bft) W-SW 247 13,8 C 31,4 C 4,0 km/h (1 Bft)
15.06.2013 17:25 25,3 C 49 % 1019,9 hPa 0,0 l/m 2,9 km/h (1 Bft) W-SW 247 13,8 C 31,2 C 4,3 km/h (1 Bft)
15.06.2013 17:30 25,5 C 48 % 1019,9 hPa 0,0 l/m 4,7 km/h (1 Bft) W 270 13,7 C 30,5 C 11,9 km/h (2 Bft)
15.06.2013 17:35 25,6 C 47 % 1019,9 hPa 0,0 l/m 6,3 km/h (2 Bft) SW 225 13,4 C 30,4 C 9,5 km/h (2 Bft)
15.06.2013 17:40 25,1 C 48 % 1019,9 hPa 0,0 l/m 6,4 km/h (2 Bft) W-SW 247 13,3 C 29,7 C 4,8 km/h (1 Bft)
15.06.2013 17:45 25,4 C 49 % 1019,8 hPa 0,0 l/m 5,8 km/h (2 Bft) SW 225 13,9 C 29,6 C 4,8 km/h (1 Bft)
15.06.2013 17:50 24,5 C 49 % 1019,8 hPa 0,0 l/m 6,1 km/h (2 Bft) S-SW 202 13,1 C 29,1 C 3,5 km/h (1 Bft)
15.06.2013 17:55 23,8 C 50 % 1019,8 hPa 0,0 l/m 6,1 km/h (2 Bft) S 180 12,7 C 27,6 C 5,6 km/h (1 Bft)
15.06.2013 18:00 23,6 C 50 % 1019,8 hPa 0,0 l/m 4,3 km/h (1 Bft) S 180 12,6 C 26,4 C 6,9 km/h (2 Bft)
15.06.2013 18:05 23,3 C 52 % 1019,4 hPa 0,0 l/m 3,7 km/h (1 Bft) S-SW 202 12,9 C 25,6 C 2,6 km/h (1 Bft)
15.06.2013 18:10 23,0 C 53 % 1019,4 hPa 0,0 l/m 3,5 km/h (1 Bft) S 180 12,9 C 24,9 C 3,2 km/h (1 Bft)
15.06.2013 18:15 22,7 C 56 % 1019,4 hPa 0,0 l/m 3,9 km/h (1 Bft) W 270 13,5 C 24,4 C 9,8 km/h (2 Bft)
15.06.2013 18:20 22,1 C 59 % 1019,4 hPa 0,0 l/m 5,0 km/h (1 Bft) W 270 13,7 C 23,1 C 7,4 km/h (2 Bft)
15.06.2013 18:25 22,3 C 59 % 1019,1 hPa 0,0 l/m 5,0 km/h (1 Bft) SW 225 13,9 C 22,6 C 7,9 km/h (2 Bft)
15.06.2013 18:30 22,8 C 59 % 1019,1 hPa 0,0 l/m 4,0 km/h (1 Bft) S-SW 202 14,4 C 23,4 C 3,9 km/h (1 Bft)
15.06.2013 18:35 22,9 C 59 % 1019,1 hPa 0,0 l/m 3,9 km/h (1 Bft) W-SW 247 14,5 C 23,6 C 4,2 km/h (1 Bft)
15.06.2013 18:40 22,8 C 57 % 1019,1 hPa 0,0 l/m 4,5 km/h (1 Bft) S-SW 202 13,8 C 23,8 C 4,5 km/h (1 Bft)
15.06.2013 18:45 22,6 C 57 % 1019,5 hPa 0,0 l/m 4,8 km/h (1 Bft) W-SW 247 13,6 C 23,8 C 6,4 km/h (2 Bft)
15.06.2013 18:50 22,5 C 58 % 1019,5 hPa 0,0 l/m 4,2 km/h (1 Bft) S 180 13,8 C 23,6 C 4,0 km/h (1 Bft)
15.06.2013 18:55 22,4 C 58 % 1019,5 hPa 0,0 l/m 3,4 km/h (1 Bft) W 270 13,7 C 23,5 C 0,0 km/h (0 Bft)
15.06.2013 19:00 22,0 C 59 % 1019,5 hPa 0,0 l/m 3,5 km/h (1 Bft) S-SO 157 13,6 C 23,3 C 3,7 km/h (1 Bft)
15.06.2013 19:05 21,9 C 58 % 1019,1 hPa 0,0 l/m 4,5 km/h (1 Bft) W-SW 247 13,3 C 23,0 C 4,3 km/h (1 Bft)
15.06.2013 19:11 21,7 C 59 % 1019,1 hPa 0,0 l/m 3,5 km/h (1 Bft) S-SW 202 13,3 C 22,8 C 1,8 km/h (1 Bft)
15.06.2013 19:15 21,7 C 60 % 1019,1 hPa 0,0 l/m 2,4 km/h (1 Bft) S 180 13,6 C 22,8 C 5,0 km/h (1 Bft)
15.06.2013 19:20 21,7 C 60 % 1019,1 hPa 0,0 l/m 2,9 km/h (1 Bft) SO 135 13,6 C 23,1 C 3,9 km/h (1 Bft)
15.06.2013 19:25 21,8 C 59 % 1019,1 hPa 0,0 l/m 3,1 km/h (1 Bft) O 90 13,4 C 23,3 C 0,0 km/h (0 Bft)
15.06.2013 19:30 21,7 C 61 % 1019,1 hPa 0,0 l/m 1,9 km/h (1 Bft) O 90 13,8 C 23,8 C 0,0 km/h (0 Bft)
15.06.2013 19:35 21,6 C 61 % 1019,1 hPa 0,0 l/m 1,1 km/h (1 Bft) S-SO 157 13,7 C 23,5 C 3,1 km/h (1 Bft)
15.06.2013 19:40 21,2 C 63 % 1019,1 hPa 0,0 l/m 1,3 km/h (1 Bft) O 90 13,9 C 23,0 C 1,8 km/h (1 Bft)
15.06.2013 19:45 20,9 C 65 % 1019,2 hPa 0,0 l/m 1,4 km/h (1 Bft) O-SO 112 14,1 C 22,6 C 2,6 km/h (1 Bft)
15.06.2013 19:50 20,4 C 68 % 1019,2 hPa 0,0 l/m 2,1 km/h (1 Bft) O-NO 67 14,3 C 22,0 C 2,6 km/h (1 Bft)
15.06.2013 19:55 20,2 C 69 % 1019,2 hPa 0,0 l/m 2,3 km/h (1 Bft) O-NO 67 14,3 C 21,6 C 3,1 km/h (1 Bft)
15.06.2013 20:00 19,9 C 71 % 1019,2 hPa 0,0 l/m 1,9 km/h (1 Bft) O 90 14,5 C 21,1 C 1,8 km/h (1 Bft)
15.06.2013 20:05 19,8 C 71 % 1019,2 hPa 0,0 l/m 1,6 km/h (1 Bft) O 90 14,4 C 20,8 C 2,6 km/h (1 Bft)
15.06.2013 20:10 19,6 C 73 % 1019,2 hPa 0,0 l/m 1,0 km/h (0 Bft) O 90 14,6 C 20,4 C 0,0 km/h (0 Bft)
15.06.2013 20:15 19,6 C 73 % 1019,2 hPa 0,0 l/m 1,0 km/h (0 Bft) O-NO 67 14,6 C 20,4 C 3,5 km/h (1 Bft)
15.06.2013 20:20 19,4 C 74 % 1019,2 hPa 0,0 l/m 1,9 km/h (1 Bft) O-NO 67 14,6 C 20,1 C 3,2 km/h (1 Bft)
15.06.2013 20:25 19,2 C 74 % 1019,1 hPa 0,0 l/m 2,4 km/h (1 Bft) NO 45 14,4 C 20,0 C 0,0 km/h (0 Bft)
15.06.2013 20:30 19,1 C 74 % 1019,1 hPa 0,0 l/m 1,6 km/h (1 Bft) O-SO 112 14,4 C 19,7 C 2,9 km/h (1 Bft)
15.06.2013 20:35 19,0 C 74 % 1019,1 hPa 0,0 l/m 1,1 km/h (1 Bft) O-SO 112 14,3 C 19,6 C 0,0 km/h (0 Bft)
15.06.2013 20:40 18,3 C 79 % 1019,1 hPa 0,7 l/m 1,8 km/h (1 Bft) O-NO 67 14,6 C 19,1 C 3,5 km/h (1 Bft)
15.06.2013 20:45 17,4 C 85 % 1019,4 hPa 0,7 l/m 1,6 km/h (1 Bft) SO 135 14,8 C 18,3 C 2,3 km/h (1 Bft)
15.06.2013 20:50 16,9 C 88 % 1019,4 hPa 2,7 l/m 3,7 km/h (1 Bft) N 360 14,9 C 17,5 C 6,8 km/h (2 Bft)
15.06.2013 20:55 16,8 C 89 % 1019,4 hPa 0,0 l/m 4,3 km/h (1 Bft) NO 45 15,0 C 17,0 C 2,7 km/h (1 Bft)
15.06.2013 21:00 16,6 C 90 % 1019,4 hPa 0,7 l/m 3,4 km/h (1 Bft) O-SO 112 15,0 C 16,7 C 3,4 km/h (1 Bft)
15.06.2013 21:05 16,5 C 90 % 1020,0 hPa 0,7 l/m 2,3 km/h (1 Bft) S 180 14,9 C 16,6 C 2,1 km/h (1 Bft)
15.06.2013 21:11 16,3 C 90 % 1020,0 hPa 0,0 l/m 1,6 km/h (1 Bft) N-NW 337 14,7 C 16,4 C 0,0 km/h (0 Bft)
15.06.2013 21:15 16,3 C 90 % 1020,0 hPa 0,0 l/m 2,6 km/h (1 Bft) S-SO 157 14,7 C 16,4 C 4,3 km/h (1 Bft)
15.06.2013 21:20 16,3 C 90 % 1020,0 hPa 0,7 l/m 4,7 km/h (1 Bft) SO 135 14,7 C 16,3 C 6,4 km/h (2 Bft)
15.06.2013 21:25 16,0 C 91 % 1020,7 hPa 0,0 l/m 5,6 km/h (1 Bft) W 270 14,5 C 16,2 C 12,1 km/h (2 Bft)
15.06.2013 21:30 15,9 C 92 % 1020,7 hPa 0,7 l/m 4,3 km/h (1 Bft) O-SO 112 14,6 C 16,0 C 1,9 km/h (1 Bft)
15.06.2013 21:35 16,0 C 91 % 1020,7 hPa 0,0 l/m 2,7 km/h (1 Bft) S 180 14,5 C 16,0 C 4,5 km/h (1 Bft)
15.06.2013 21:40 15,7 C 93 % 1020,7 hPa 1,4 l/m 2,7 km/h (1 Bft) O-SO 112 14,6 C 16,0 C 10,0 km/h (2 Bft)
15.06.2013 21:45 15,4 C 93 % 1020,9 hPa 0,7 l/m 3,9 km/h (1 Bft) S 180 14,3 C 15,7 C 4,8 km/h (1 Bft)
15.06.2013 21:50 15,2 C 93 % 1020,9 hPa 0,0 l/m 2,9 km/h (1 Bft) O-NO 67 14,1 C 15,4 C 2,4 km/h (1 Bft)
15.06.2013 21:55 15,1 C 93 % 1020,9 hPa 0,0 l/m 1,4 km/h (1 Bft) S-SO 157 14,0 C 15,2 C 0,0 km/h (0 Bft)
15.06.2013 22:00 15,0 C 93 % 1020,9 hPa 0,0 l/m 0,6 km/h (0 Bft) SO 135 13,9 C 15,1 C 0,0 km/h (0 Bft)
15.06.2013 22:05 15,0 C 93 % 1020,9 hPa 0,0 l/m 0,5 km/h (0 Bft) NO 45 13,9 C 15,0 C 0,0 km/h (0 Bft)
15.06.2013 22:10 15,0 C 93 % 1020,9 hPa 0,0 l/m 0,5 km/h (0 Bft) NO 45 13,9 C 15,0 C 0,0 km/h (0 Bft)
15.06.2013 22:15 14,9 C 93 % 1020,9 hPa 0,0 l/m 0,6 km/h (0 Bft) O-NO 67 13,8 C 15,0 C 1,9 km/h (1 Bft)
15.06.2013 22:20 14,9 C 93 % 1020,9 hPa 0,7 l/m 0,2 km/h (0 Bft) S 180 13,8 C 15,0 C 0,0 km/h (0 Bft)
15.06.2013 22:25 14,9 C 93 % 1020,6 hPa 0,0 l/m 0,2 km/h (0 Bft) O-SO 112 13,8 C 14,9 C 0,0 km/h (0 Bft)
15.06.2013 22:30 14,9 C 93 % 1020,6 hPa 0,0 l/m 0,6 km/h (0 Bft) S 180 13,8 C 14,9 C 3,5 km/h (1 Bft)
15.06.2013 22:35 14,9 C 94 % 1020,6 hPa 0,0 l/m 1,6 km/h (1 Bft) NO 45 13,9 C 15,0 C 2,4 km/h (1 Bft)
15.06.2013 22:40 14,9 C 94 % 1020,6 hPa 0,0 l/m 1,4 km/h (1 Bft) NO 45 13,9 C 15,0 C 1,9 km/h (1 Bft)
15.06.2013 22:45 14,9 C 94 % 1021,1 hPa 0,0 l/m 0,5 km/h (0 Bft) N-NO 22 13,9 C 15,0 C 0,0 km/h (0 Bft)
15.06.2013 22:50 14,8 C 94 % 1021,1 hPa 0,0 l/m 0,6 km/h (0 Bft) O-NO 67 13,8 C 14,9 C 2,1 km/h (1 Bft)
15.06.2013 22:55 14,8 C 94 % 1021,1 hPa 0,0 l/m 0,6 km/h (0 Bft) O 90 13,8 C 14,9 C 0,0 km/h (0 Bft)
15.06.2013 23:00 14,7 C 94 % 1021,1 hPa 0,0 l/m 0,5 km/h (0 Bft) NO 45 13,7 C 14,8 C 2,7 km/h (1 Bft)
15.06.2013 23:05 14,7 C 94 % 1021,1 hPa 0,0 l/m 0,5 km/h (0 Bft) O-NO 67 13,7 C 14,9 C 0,0 km/h (0 Bft)
15.06.2013 23:11 14,6 C 94 % 1021,1 hPa 0,0 l/m 0,8 km/h (0 Bft) NW 315 13,6 C 14,8 C 0,0 km/h (0 Bft)
15.06.2013 23:15 14,6 C 94 % 1021,1 hPa 0,0 l/m 0,6 km/h (0 Bft) O 90 13,6 C 14,8 C 3,1 km/h (1 Bft)
15.06.2013 23:20 14,7 C 94 % 1021,1 hPa 0,0 l/m 1,0 km/h (0 Bft) NO 45 13,7 C 14,8 C 3,9 km/h (1 Bft)
15.06.2013 23:25 14,6 C 94 % 1021,1 hPa 0,0 l/m 1,0 km/h (0 Bft) NO 45 13,6 C 14,8 C 0,0 km/h (0 Bft)
15.06.2013 23:30 14,7 C 94 % 1021,1 hPa 0,0 l/m 1,3 km/h (1 Bft) O-NO 67 13,7 C 14,8 C 4,5 km/h (1 Bft)
15.06.2013 23:35 14,7 C 94 % 1021,1 hPa 0,0 l/m 1,4 km/h (1 Bft) NO 45 13,7 C 14,8 C 0,0 km/h (0 Bft)
15.06.2013 23:40 14,6 C 94 % 1021,1 hPa 0,0 l/m 1,4 km/h (1 Bft) N-NO 22 13,6 C 14,8 C 1,8 km/h (1 Bft)
15.06.2013 23:45 14,6 C 94 % 1020,9 hPa 0,0 l/m 1,1 km/h (1 Bft) O-NO 67 13,6 C 14,8 C 0,0 km/h (0 Bft)
15.06.2013 23:50 14,6 C 94 % 1020,9 hPa 0,0 l/m 2,1 km/h (1 Bft) O-SO 112 13,6 C 14,8 C 0,0 km/h (0 Bft)
15.06.2013 23:55 14,6 C 94 % 1020,9 hPa 0,0 l/m 2,4 km/h (1 Bft) S 180 13,6 C 14,7 C 4,8 km/h (1 Bft)
_ Min-Zeit 03:35 16:35 06:40 - 08:50 - - 03:35 03:40 23:50
Minimum _ 8,1 C 43 % 1019,0 hPa - 0,0 km/h (0 Bft) - - 7,3 C 8,0 C 0,0 km/h (0 Bft)
_ Max-Zeit 15:15 06:05 23:40 20:50 12:25 - - 09:20 17:20 12:50
Maximum _ 27,6 C 96 % 1021,1 hPa 2,7 l/m 8,4 km/h
S (2 Bft)
- - 18,5 C 31,4 C 19,6 km/h
S (3 Bft)
Durchschnitt _ 18,2 C 74 % 1020,0 hPa #10,3 l/m 2,5 km/h (1 Bft) S - 12,8 C 19,2 C 3,4 km/h (1 Bft)